Location: Catenanuova
(37.5690°N, 14.6870°E)
Time: 02:42:47
(UTC+01:00)

Hubble Space Telescope - Visible Passes

Search period start: 19 November 2025 00:00
Search period end: 29 November 2025 00:00
Orbit: 482 x 484 km, 28.5° (Epoch: 17 November)

Date Brightness Start Highest point End Pass type
(mag) Time Alt. Az. Time Alt. Az. Time Alt. Az.
19 Nov 3.2 04:45:21 11° S 04:46:25 12° SSE 04:47:55 10° SE visible
20 Nov 3.5 04:18:28 11° SSE 04:18:28 11° SSE 04:19:11 10° SE visible
20 Nov 2.7 05:54:05 10° SW 05:56:55 20° S 05:59:45 10° SE visible
21 Nov 2.6 05:25:42 12° SW 05:28:07 20° S 05:30:57 10° SE visible
22 Nov 2.5 04:58:39 19° S 04:59:18 20° S 05:02:08 10° SE visible
23 Nov 2.9 04:31:32 18° SSE 04:31:32 18° SSE 04:33:18 10° SE visible
23 Nov 2.8 06:07:17 10° SW 06:09:49 17° S 06:12:21 10° SSE visible
24 Nov 3.8 04:04:23 10° SE 04:04:23 10° SE 04:04:28 10° SE visible
24 Nov 2.7 05:38:34 11° SW 05:40:58 17° S 05:43:29 10° SSE visible
25 Nov 2.6 05:11:23 16° SSW 05:12:05 17° S 05:14:36 10° SSE visible
26 Nov 2.9 04:44:10 15° S 04:44:10 15° S 04:45:41 10° SSE visible
